Location: Unspecified
(24.9109°N, 0.0000°E)
Time: 06:42:52
(UTC+00:00)

POLYITAN 1 - Visible Passes

Search period start: 04 April 2026 00:00
Search period end: 14 April 2026 00:00
Orbit: 468 x 481 km, 98.1° (Epoch: 29 March)

Date Brightness Start Highest point End Pass type
(mag) Time Alt. Az. Time Alt. Az. Time Alt. Az.
6 Apr ? 19:06:21 10° SSW 19:09:01 21° W 19:11:42 10° NW visible
7 Apr ? 18:37:46 10° S 18:41:13 59° W 18:44:39 10° NNW visible
9 Apr ? 19:16:29 10° SW 19:18:39 16° W 19:20:50 10° WNW visible
10 Apr ? 18:47:22 10° S 18:50:42 42° W 18:54:01 10° NNW visible
12 Apr ? 19:26:32 10° WSW 19:27:55 12° W 19:29:17 10° WNW visible
13 Apr ? 18:56:40 10° SSW 18:59:48 31° W 19:02:56 10° NW visible
